Content
SEND FEEDBACK

Daily
Averages
Monthly
Summary
United States of America

STATEN ISLAND, NEW YORK


Home > North America > United States > New York
Elevation: 152 feet     Latitude: 40 35N     Longitude: 074 09W

WEATHER
 
SELECT A DAY
Number of Records: 189,442;   Date Range: 1/1/95 - 7/7/14
 
SHARE

PRINT THIS DATA

[ ← Previous Day ]
WEATHER ALMANAC - MAY 2, 2013
[ Next Day → ]
[ °C ]   °F
Weather ElementAverageHighLow
Temperature59.7 °F68 °F (3:51 pm)46 °F (4:51 am)
Dewpoint41.6 °F45 °F (7:51 am)37.9 °F (6:51 pm)
Humidity53.8 %86 % (4:51 am)36 % (3:51 pm)
Barometer30.40 in30.46 in (8:51 am)30.33 in (6:51 pm)
Wind Speed4.4 mph8.1 mph (1:51 pm)
Weather ElementAverage
Visibility10 mi
Wind DirectionENE (64.3 °)

Weather ElementTotal
Precipitation---
Heating Degree Days8 (Base 65)
Growing Degree Days7 (Base 50)
Averaged from 23 records on May 2, 2013
WEATHER CONDITIONS BREAKOUT
WIND DIRECTION BREAKOUT
WEATHER BY HOUR - MAY 2, 2013
[ °C ]   °F
Local TimeTemperatureDewpointHumidityBarometerVisibilityWind DirectionWind SpeedGust SpeedPrecipitationEventsConditions
1:51 AM51.1 °F42.1 °F71 %30.44 in10.0 miCalmClear
2:51 AM50.0 °F42.1 °F74 %30.42 in10.0 miNNE (20°)3.5 mphClear
3:51 AM48.0 °F42.1 °F80 %30.42 in10.0 miNNE (30°)4.6 mphClear
4:51 AM46.0 °F42.1 °F86 %30.42 in10.0 miNorth (10°)4.6 mphClear
5:51 AM48.9 °F43.0 °F80 %30.42 in10.0 miCalmClear
6:51 AM51.1 °F44.1 °F77 %30.43 in10.0 miCalmClear
7:51 AM55.0 °F45.0 °F69 %30.45 in10.0 miCalmClear
8:51 AM59.0 °F42.8 °F55 %30.46 in10.0 miVariable3.5 mphPartly Cloudy
9:51 AM60.8 °F42.8 °F52 %30.46 in10.0 miVariable3.5 mphPartly Cloudy
10:51 AM63.0 °F41.0 °F45 %30.46 in10.0 miVariable3.5 mphClear
11:51 AM66.0 °F42.1 °F42 %30.45 in10.0 miSSE (150°)5.8 mphPartly Cloudy
12:51 PM66.9 °F42.1 °F40 %30.43 in10.0 miVariable5.8 mphPartly Cloudy
1:51 PM66.9 °F42.1 °F40 %30.41 in10.0 miSSE (150°)8.1 mphScattered Clouds
2:51 PM66.9 °F41.0 °F39 %30.40 in10.0 miVariable5.8 mphPartly Cloudy
3:51 PM68.0 °F39.9 °F36 %30.38 in10.0 miSSE (160°)6.9 mphPartly Cloudy
4:51 PM68.0 °F39.9 °F36 %30.36 in10.0 miSE (140°)6.9 mphPartly Cloudy
5:51 PM66.0 °F39.0 °F37 %30.36 in10.0 miSSE (160°)8.1 mphPartly Cloudy
6:51 PM64.9 °F37.9 °F37 %30.33 in10.0 miVariable4.6 mphPartly Cloudy
7:51 PM64.0 °F39.0 °F40 %30.33 in10.0 miSSE (160°)4.6 mphPartly Cloudy
8:51 PM62.1 °F41.0 °F46 %30.33 in10.0 miSSE (150°)6.9 mphPartly Cloudy
9:51 PM61.0 °F41.0 °F48 %30.34 in10.0 miSSE (160°)4.6 mphPartly Cloudy
10:51 PM60.1 °F41.0 °F49 %30.35 in10.0 miEast (90°)3.5 mphScattered Clouds
11:51 PM59.0 °F44.1 °F58 %30.36 in10.0 miEast (100°)6.9 mphPartly Cloudy
Hourly data recorded from KEWR, located miles away from Staten Island, New York







STORIES FROM OUR PARTNERS